H1 CPF 2 NER 2025 12 12 9 346 01 glonass135 H2 1600801 9135 41330 2025 12 12 0 0 0 2025 12 15 23 45 0 900 1 1 0 0 0 1 H9 10 0 61021 0.00000 0 -16139003.027 -13521898.465 -14418671.877 10 0 61021 900.00000 0 -17151960.168 -14791363.338 -11764727.348 10 0 61021 1800.00000 0 -18049562.911 -15711673.064 -8882622.682 10 0 61021 2700.00000 0 -18772804.650 -16288055.690 -5828307.566 10 0 61021 3600.00000 0 -19266833.487 -16538419.317 -2661029.785 10 0 61021 4500.00000 0 -19483376.792 -16492368.049 557810.725 10 0 61021 5400.00000 0 -19382905.299 -16189741.325 3765846.833 10 0 61021 6300.00000 0 -18936446.230 -15678739.204 6900945.562 10 0 61021 7200.00000 0 -18126969.642 -15013713.143 9902402.945 10 0 61021 8100.00000 0 -16950289.956 -14252715.466 12712109.891 10 0 61021 9000.00000 0 -15415444.742 -13454910.483 15275667.244 10 0 61021 9900.00000 0 -13544534.406 -12677955.651 17543429.257 10 0 61021 10800.00000 0 -11372028.625 -11975462.234 19471456.239 10 0 61021 11700.00000 0 -8943567.191 -11394641.413 21022358.866 10 0 61021 12600.00000 0 -6314303.682 -10974234.050 22166018.598 10 0 61021 13500.00000 0 -3546858.997 -10742810.572 22880170.923 10 0 61021 14400.00000 0 -708967.818 -10717512.173 23150840.480 10 0 61021 15300.00000 0 2129086.280 -10903286.463 22972619.643 10 0 61021 16200.00000 0 4897142.520 -11292650.326 22348784.753 10 0 61021 17100.00000 0 7527832.195 -11865991.048 21291246.986 10 0 61021 18000.00000 0 9959135.952 -12592394.488 19820337.629 10 0 61021 18900.00000 0 12136723.689 -13430967.072 17964430.546 10 0 61021 19800.00000 0 14015980.143 -14332597.563 15759407.584 10 0 61021 20700.00000 0 15563631.727 -15242085.807 13247975.791 10 0 61021 21600.00000 0 16758906.411 -16100549.695 10478848.360 10 0 61021 22500.00000 0 17594177.621 -16848009.311 7505804.146 10 0 61021 23400.00000 0 18075064.660 -17426038.952 4386643.522 10 0 61021 24300.00000 0 18219985.025 -17780374.264 1182060.741 10 0 61021 25200.00000 0 18059177.376 -17863362.967 -2045544.802 10 0 61021 26100.00000 0 17633236.571 -17636153.855 -5233294.350 10 0 61021 27000.00000 0 16991223.282 -17070529.591 -8319067.506 10 0 61021 27900.00000 0 16188429.083 -16150303.881 -11242726.301 10 0 61021 28800.00000 0 15283892.827 -14872222.215 -13947300.221 10 0 61021 29700.00000 0 14337774.860 -13246326.656 -16380107.665 10 0 61021 30600.00000 0 13408701.553 -11295768.208 -18493790.860 10 0 61021 31500.00000 0 12551193.772 -9056073.960 -20247243.209 10 0 61021 32400.00000 0 11813288.907 -6573899.505 -21606410.634 10 0 61021 33300.00000 0 11234457.449 -3905318.928 -22544951.372 10 0 61021 34200.00000 0 10843902.116 -1113724.152 -23044741.765 10 0 61021 35100.00000 0 10659310.859 1732578.345 -23096218.962 10 0 61021 36000.00000 0 10686115.498 4562973.050 -22698554.797 10 0 61021 36900.00000 0 10917286.085 7307234.590 -21859658.505 10 0 61021 37800.00000 0 11333668.356 9898208.584 -20596009.280 10 0 61021 38700.00000 0 11904848.701 12274363.297 -18932322.886 10 0 61021 39600.00000 0 12590508.954 14382106.983 -16901059.648 10 0 61021 40500.00000 0 13342212.873 16177775.913 -14541784.050 10 0 61021 41400.00000 0 14105548.224 17629212.023 -11900388.884 10 0 61021 42300.00000 0 14822533.697 18716866.372 -9028199.363 10 0 61021 43200.00000 0 15434189.002 19434384.413 -5980974.796 10 0 61021 44100.00000 0 15883159.886 19788650.746 -2817827.235 10 0 61021 45000.00000 0 16116287.702 19799293.371 399921.949 10 0 61021 45900.00000 0 16087015.667 19497669.958 3609925.587 10 0 61021 46800.00000 0 15757530.922 18925379.974 6750011.737 10 0 61021 47700.00000 0 15100552.580 18132366.028 9759379.357 10 0 61021 48600.00000 0 14100690.833 17174684.667 12579766.074 10 0 61021 49500.00000 0 12755319.923 16112040.215 15156566.236 10 0 61021 50400.00000 0 11074927.986 15005184.913 17439878.368 10 0 61021 51300.00000 0 9082928.285 13913293.815 19385462.724 10 0 61021 52200.00000 0 6814938.497 12891423.767 20955591.326 10 0 61021 53100.00000 0 4317556.529 11988162.203 22119774.808 10 0 61021 54000.00000 0 1646681.934 11243563.538 22855352.682 10 0 61021 54900.00000 0 -1134549.380 10687459.119 23147935.939 10 0 61021 55800.00000 0 -3958133.482 10338211.345 22991693.449 10 0 61021 56700.00000 0 -6753773.575 10201964.352 22389476.214 10 0 61021 57600.00000 0 -9451556.956 10272423.234 21352776.327 10 0 61021 58500.00000 0 -11984624.135 10531171.998 19901520.279 10 0 61021 59400.00000 0 -14291720.288 10948518.011 18063699.262 10 0 61021 60300.00000 0 -16319523.526 11484828.749 15874842.056 10 0 61021 61200.00000 0 -18024653.084 12092305.691 13377339.257 10 0 61021 62100.00000 0 -19375273.343 12717121.575 10619630.582 10 0 61021 63000.00000 0 -20352226.067 13301831.318 7655269.973 10 0 61021 63900.00000 0 -20949642.708 13787954.792 4541886.107 10 0 61021 64800.00000 0 -21175010.414 14118621.649 1340058.381 10 0 61021 65700.00000 0 -21048688.525 14241165.216 -1887869.356 10 0 61021 66600.00000 0 -20602895.776 14109554.108 -5079013.330 10 0 61021 67500.00000 0 -19880211.209 13686556.737 -8171187.559 10 0 61021 68400.00000 0 -18931652.748 12945545.158 -11104129.184 10 0 61021 69300.00000 0 -17814415.672 11871859.984 -13820685.978 10 0 61021 70200.00000 0 -16589367.791 10463677.006 -16267941.475 10 0 61021 71100.00000 0 -15318408.548 8732337.498 -18398254.633 10 0 61021 72000.00000 0 -14061804.841 6702127.309 -20170192.911 10 0 61021 72900.00000 0 -12875617.067 4409513.401 -21549340.199 10 0 61021 73800.00000 0 -11809324.553 1901869.563 -22508963.881 10 0 61021 74700.00000 0 -10903750.658 -764255.269 -23030528.438 10 0 61021 75600.00000 0 -10189374.558 -3525253.585 -23104046.317 10 0 61021 76500.00000 0 -9685099.923 -6312872.215 -22728260.167 10 0 61021 77400.00000 0 -9397531.080 -9056820.952 -21910653.938 10 0 61021 78300.00000 0 -9320785.532 -11687468.334 -20667293.693 10 0 61021 79200.00000 0 -9436849.045 -14138512.846 -19022502.179 10 0 61021 80100.00000 0 -9716456.651 -16349519.070 -17008374.352 10 0 61021 81000.00000 0 -10120460.929 -18268214.326 -14664143.955 10 0 61021 81900.00000 0 -10601628.593 -19852451.555 -12035413.952 10 0 61021 82800.00000 0 -11106788.692 -21071758.231 -9173266.122 10 0 61021 83700.00000 0 -11579241.189 -21908408.509 -6133267.321 10 0 61021 84600.00000 0 -11961324.030 -22357975.682 -2974391.711 10 0 61021 85500.00000 0 -12197030.409 -22429343.668 242120.129 10 0 61022 0.00000 0 -12234566.045 -22144178.693 3453943.014 10 0 61022 900.00000 0 -12028738.962 -21535884.497 6598869.010 10 0 61022 1800.00000 0 -11543081.426 -20648086.302 9616002.179 10 0 61022 2700.00000 0 -10751615.016 -19532707.193 12446929.403 10 0 61022 3600.00000 0 -9640184.536 -18247718.040 15036841.069 10 0 61022 4500.00000 0 -8207304.533 -16854654.982 17335582.452 10 0 61022 5400.00000 0 -6464482.262 -15416007.907 19298616.098 10 0 61022 6300.00000 0 -4436002.447 -13992588.495 20887877.503 10 0 61022 7200.00000 0 -2158181.347 -12640987.037 22072508.326 10 0 61022 8100.00000 0 321880.650 -11411223.480 22829453.624 10 0 61022 9000.00000 0 2947998.127 -10344690.121 23143911.911 10 0 61022 9900.00000 0 5656983.021 -9472471.414 23009629.349 10 0 61022 10800.00000 0 8381026.009 -8814110.901 22429032.046 10 0 61022 11700.00000 0 11050280.091 -8376876.961 21413193.105 10 0 61022 12600.00000 0 13595540.742 -8155558.567 19981633.977 10 0 61022 13500.00000 0 15950912.580 -8132800.351 18161962.592 10 0 61022 14400.00000 0 18056352.386 -8279963.758 15989353.732 10 0 61022 15300.00000 0 19859982.783 -8558479.020 13505880.235 10 0 61022 16200.00000 0 21320079.818 -8921631.793 10759706.639 10 0 61022 17100.00000 0 22406650.752 -9316709.553 7804159.853 10 0 61022 18000.00000 0 23102535.130 -9687417.219 4696694.344 10 0 61022 18900.00000 0 23403982.042 -9976459.385 1497771.769 10 0 61022 19800.00000 0 23320678.507 -10128178.960 -1730322.735 10 0 61022 20700.00000 0 22875227.278 -10091139.063 -4924703.719 10 0 61022 21600.00000 0 22102095.934 -9820537.037 -8023123.010 10 0 61022 22500.00000 0 21046081.848 -9280346.388 -10965196.181 10 0 61022 23400.00000 0 19760358.509 -8445093.976 -13693592.444 10 0 61022 24300.00000 0 18304186.680 -7301195.397 -16155163.368 10 0 61022 25200.00000 0 16740388.130 -5847790.525 -18301987.247 10 0 61022 26100.00000 0 15132689.761 -4097042.707 -20092307.872 10 0 61022 27000.00000 0 13543051.107 -2073888.120 -21491349.021 10 0 61022 27900.00000 0 12029088.503 184754.730 -22471988.780 10 0 61022 28800.00000 0 10641704.623 2631282.360 -23015280.931 10 0 61022 29700.00000 0 9423022.847 5209156.230 -23110813.985 10 0 61022 30600.00000 0 8404712.493 7855031.946 -22756901.768 10 0 61022 31500.00000 0 7606774.017 10501178.770 -21960602.912 10 0 61022 32400.00000 0 7036833.579 13078088.538 -20737569.926 10 0 61022 33300.00000 0 6689974.670 15517165.520 -19111731.740 10 0 61022 34200.00000 0 6549111.859 17753385.637 -17114816.778 10 0 61022 35100.00000 0 6585888.972 19727815.008 -14785726.526 10 0 61022 36000.00000 0 6762062.083 21389883.971 -12169772.239 10 0 61022 36900.00000 0 7031307.597 22699323.017 -9317790.055 10 0 61022 37800.00000 0 7341378.039 23627681.371 -6285151.834 10 0 61022 38700.00000 0 7636513.924 24159366.370 -3130691.036 10 0 61022 39600.00000 0 7860009.536 24292161.811 84435.590 10 0 61022 40500.00000 0 7956824.311 24037205.063 3297928.579 10 0 61022 41400.00000 0 7876129.801 23418425.211 6447546.065 10 0 61022 42300.00000 0 7573685.098 22471466.746 9472300.956 10 0 61022 43200.00000 0 7013940.894 21242144.523 12313632.424 10 0 61022 44100.00000 0 6171783.748 19784494.901 14916529.746 10 0 61022 45000.00000 0 5033847.105 18158504.506 17230587.565 10 0 61022 45900.00000 0 3599333.587 16427611.092 19210973.069 10 0 61022 46800.00000 0 1880313.191 14656080.168 20819287.285 10 0 61022 47700.00000 0 -98516.385 12906366.024 22024304.646 10 0 61022 48600.00000 0 -2300599.022 11236566.249 22802577.145 10 0 61022 49500.00000 0 -4678789.044 9698074.966 23138891.821 10 0 61022 50400.00000 0 -7177069.113 8333531.869 23026572.711 10 0 61022 51300.00000 0 -9732647.993 7175152.051 22467621.122 10 0 61022 52200.00000 0 -12278353.217 6243506.067 21472690.759 10 0 61022 53100.00000 0 -14745221.067 5546801.269 20060897.093 10 0 61022 54000.00000 0 -17065177.721 5080694.790 18259463.327 10 0 61022 54900.00000 0 -19173700.939 4828646.562 16103208.287 10 0 61022 55800.00000 0 -21012351.824 4762798.190 13633884.659 10 0 61022 56700.00000 0 -22531070.849 4845341.307 10899379.058 10 0 61022 57600.00000 0 -23690141.633 5030318.162 7952788.380 10 0 61022 58500.00000 0 -24461739.227 5265778.560 4851389.733 10 0 61022 59400.00000 0 -24830996.894 5496201.634 1655523.841 10 0 61022 60300.00000 0 -24796545.446 5665079.190 -1572586.065 10 0 61022 61200.00000 0 -24370501.515 5717549.957 -4770055.994 10 0 61022 62100.00000 0 -23577904.677 5602971.501 -7874578.621 10 0 61022 63000.00000 0 -22455626.978 5277318.942 -10825650.858 10 0 61022 63900.00000 0 -21050801.102 4705306.834 -13565766.088 10 0 61022 64800.00000 0 -19418834.144 3862142.516 -16041546.409 10 0 61022 65700.00000 0 -17621091.645 2734834.974 -18204791.625 10 0 61022 66600.00000 0 -15722350.545 1323002.578 -20013423.648 10 0 61022 67500.00000 0 -13788129.310 -360855.479 -21432307.477 10 0 61022 68400.00000 0 -11882008.306 -2291636.151 -22433932.736 10 0 61022 69300.00000 0 -10063053.461 -4432446.632 -22998942.849 10 0 61022 70200.00000 0 -8383451.308 -6735921.540 -23116502.237 10 0 61022 71100.00000 0 -6886454.015 -9145987.981 -22784495.308 10 0 61022 72000.00000 0 -5604719.469 -11600004.521 -22009554.379 10 0 61022 72900.00000 0 -4559114.397 -14031184.686 -20806917.065 10 0 61022 73800.00000 0 -3758028.701 -16371203.869 -19200116.860 10 0 61022 74700.00000 0 -3197227.628 -18552881.147 -17220513.824 10 0 61022 75600.00000 0 -2860245.662 -20512824.638 -14906675.178 10 0 61022 76500.00000 0 -2719303.405 -22193930.810 -12303618.383 10 0 61022 77400.00000 0 -2736706.962 -23547634.372 -9461931.783 10 0 61022 78300.00000 0 -2866669.230 -24535816.008 -6436790.103 10 0 61022 79200.00000 0 -3057475.172 -25132289.536 -3286883.967 10 0 61022 80100.00000 0 -3253898.922 -25323807.636 -73284.199 10 0 61022 81000.00000 0 -3399770.361 -25110545.391 3141737.258 10 0 61022 81900.00000 0 -3440582.782 -24506042.533 6295907.255 10 0 61022 82800.00000 0 -3326031.781 -23536607.744 9328149.347 10 0 61022 83700.00000 0 -3012378.593 -22240210.517 12179757.090 10 0 61022 84600.00000 0 -2464538.533 -20664907.185 14795520.727 10 0 61022 85500.00000 0 -1657806.748 -18866866.797 17124786.291 10 0 61023 0.00000 0 -579148.629 -16908079.001 19122427.354 10 0 61023 900.00000 0 772000.459 -14853837.711 20749712.582 10 0 61023 1800.00000 0 2383459.155 -12770107.157 21975050.492 10 0 61023 2700.00000 0 4230562.728 -10720875.433 22774601.270 10 0 61023 3600.00000 0 6276953.864 -8765607.172 23132741.431 10 0 61023 4500.00000 0 8475871.305 -6956899.371 23042373.541 10 0 61023 5400.00000 0 10771884.869 -5338437.283 22505074.465 10 0 61023 6300.00000 0 13103006.925 -3943334.931 21531078.573 10 0 61023 7200.00000 0 15403094.452 -2792929.194 20139095.142 10 0 61023 8100.00000 0 17604443.452 -1896077.803 18355962.159 10 0 61023 9000.00000 0 19640468.806 -1248990.863 16216141.709 10 0 61023 9900.00000 0 21448358.465 -835603.353 13761065.236 10 0 61023 10800.00000 0 22971591.194 -628473.411 11038340.015 10 0 61023 11700.00000 0 24162212.054 -590168.903 8100831.136 10 0 61023 12600.00000 0 24982769.346 -675083.949 5005636.206 10 0 61023 13500.00000 0 25407830.515 -831608.415 1812972.503 10 0 61023 14400.00000 0 25425011.978 -1004557.968 -1415001.452 10 0 61023 15300.00000 0 25035478.267 -1137760.708 -4615406.160 10 0 61023 16200.00000 0 24253888.486 -1176689.330 -7725878.284 10 0 61023 17100.00000 0 23107791.666 -1071025.478 -10685799.215 10 0 61023 18000.00000 0 21636496.324 -777045.718 -13437489.532 10 0 61023 18900.00000 0 19889462.096 -259726.147 -15927344.689 10 0 61023 19800.00000 0 17924281.768 505525.209 -18106888.577 10 0 61023 20700.00000 0 15804339.492 1531582.956 -19933723.525 10 0 61023 21600.00000 0 13596244.573 2818821.286 -21372357.753 10 0 61023 22500.00000 0 11367149.398 4354867.143 -22394894.129 10 0 61023 23400.00000 0 9182064.615 6114900.410 -22981567.101 10 0 61023 24300.00000 0 7101284.217 8062488.677 -23121118.049 10 0 61023 25200.00000 0 5178027.987 10150921.491 -22811002.645 10 0 61023 26100.00000 0 3456399.092 12324988.007 -22057427.187 10 0 61023 27000.00000 0 1969740.858 14523123.457 -20875214.283 10 0 61023 27900.00000 0 739459.589 16679834.590 -19287501.467 10 0 61023 28800.00000 0 -225639.468 18728302.738 -17325279.486 10 0 61023 29700.00000 0 -929477.605 20603055.999 -15026779.956 10 0 61023 30600.00000 0 -1388286.760 22242599.372 -12436724.802 10 0 61023 31500.00000 0 -1629671.984 23591893.593 -9605452.481 10 0 61023 32400.00000 0 -1691193.719 24604579.926 -6587938.148 10 0 61023 33300.00000 0 -1618531.240 25244858.893 -3442726.877 10 0 61023 34200.00000 0 -1463305.833 25488945.389 -230800.621 10 0 61023 35100.00000 0 -1280656.297 25326040.401 2985599.292 10 0 61023 36000.00000 0 -1126669.395 24758779.569 6144171.613 10 0 61023 36900.00000 0 -1055773.696 23803140.630 9183753.712 10 0 61023 37800.00000 0 -1118206.520 22487814.117 12045496.623 10 0 61023 38700.00000 0 -1357660.454 20853063.793 14673994.511 10 0 61023 39600.00000 0 -1809208.320 18949124.276 17018347.565 10 0 61023 40500.00000 0 -2497593.800 16834202.209 19033138.613 10 0 61023 41400.00000 0 -3435959.779 14572163.476 20679305.517 10 0 61023 42300.00000 0 -4625068.403 12230001.711 21924893.261 10 0 61023 43200.00000 0 -6053046.596 9875192.213 22745671.875 10 0 61023 44100.00000 0 -7695669.235 7573039.970 23125608.635 10 0 61023 45000.00000 0 -9517170.009 5384130.848 23057185.485 10 0 61023 45900.00000 0 -11471548.289 3361990.772 22541555.218 10 0 61023 46800.00000 0 -13504319.735 1551049.414 21588532.719 10 0 61023 47700.00000 0 -15554639.770 -15007.399 20216420.364 10 0 61023 48600.00000 0 -17557713.254 -1314428.148 18451669.658 10 0 61023 49500.00000 0 -19447391.274 -2338079.273 16328384.139 10 0 61023 50400.00000 0 -21158847.458 -3089593.161 13887671.710 10 0 61023 51300.00000 0 -22631222.241 -3584974.014 11176857.580 10 0 61023 52200.00000 0 -23810124.041 -3851677.848 8248571.981 10 0 61023 53100.00000 0 -24649881.616 -3927205.267 5159729.731 10 0 61023 54000.00000 0 -25115451.775 -3857266.514 1970421.241 10 0 61023 54900.00000 0 -25183900.757 -3693596.882 -1257263.157 10 0 61023 55800.00000 0 -24845395.380 -3491515.812 -4460451.907 10 0 61023 56700.00000 0 -24103660.831 -3307334.382 -7576729.049 10 0 61023 57600.00000 0 -22975884.710 -3195722.623 -10545363.716 10 0 61023 58500.00000 0 -21492070.709 -3207150.074 -13308506.762 10 0 61023 59400.00000 0 -19693868.893 -3385509.830 -15812329.827 10 0 61023 60300.00000 0 -17632932.046 -3766028.478 -18008083.377 10 0 61023 61200.00000 0 -15368867.713 -4373551.845 -19853052.207 10 0 61023 62100.00000 0 -12966872.715 -5221280.191 -21311389.289 10 0 61023 63000.00000 0 -10495150.089 -6310007.082 -22354811.666 10 0 61023 63900.00000 0 -8022217.336 -7627894.437 -22963145.121 10 0 61023 64800.00000 0 -5614218.904 -9150793.362 -23124707.702 10 0 61023 65700.00000 0 -3332355.120 -10843097.175 -22836525.483 10 0 61023 66600.00000 0 -1230534.418 -12659090.506 -22104377.400 10 0 61023 67500.00000 0 646654.279 -14544737.583 -20942669.314 10 0 61023 68400.00000 0 2265565.975 -16439834.499 -19374140.744 10 0 61023 69300.00000 0 3604654.983 -18280435.110 -17429410.842 10 0 61023 70200.00000 0 4655115.322 -20001449.038 -15146373.184 10 0 61023 71100.00000 0 5420981.827 -21539303.236 -12569451.634 10 0 61023 72000.00000 0 5918690.185 -22834556.084 -9748732.196 10 0 61023 72900.00000 0 6176116.689 -23834355.188 -6738987.903 10 0 61023 73800.00000 0 6231140.077 -24494636.709 -3598615.767 10 0 61023 74700.00000 0 6129787.542 -24781974.926 -388506.431 10 0 61023 75600.00000 0 5924044.202 -24675005.412 2829131.742 10 0 61023 76500.00000 0 5669419.018 -24165363.002 5991971.641 10 0 61023 77400.00000 0 5422370.082 -23258095.885 9038766.587 10 0 61023 78300.00000 0 5237697.769 -21971538.906 11910527.080 10 0 61023 79200.00000 0 5166015.366 -20336651.440 14551653.064 10 0 61023 80100.00000 0 5251403.334 -18395847.283 16911000.553 10 0 61023 81000.00000 0 5529345.645 -16201364.789 18942862.930 10 0 61023 81900.00000 0 6025034.841 -13813244.252 20607848.838 10 0 61023 82800.00000 0 6752117.212 -11296995.554 21873640.486 10 0 61023 83700.00000 0 7711931.355 -8721051.703 22715618.415 10 0 61023 84600.00000 0 8893273.090 -6154112.554 23117341.036 10 0 61023 85500.00000 0 10272698.057 -3662487.609 23070869.763 10 0 61024 0.00000 0 11815351.050 -1307547.117 22576933.216 10 0 61024 900.00000 0 13476290.321 856615.008 21644926.305 10 0 61024 1800.00000 0 15202251.525 2785206.984 20292743.919 10 0 61024 2700.00000 0 16933782.275 4444374.020 18546450.272 10 0 61024 3600.00000 0 18607657.679 5812371.148 16439789.359 10 0 61024 4500.00000 0 20159477.720 6880226.203 14013544.343 10 0 61024 5400.00000 0 21526338.127 7651864.822 11314756.953 10 0 61024 6300.00000 0 22649462.692 8143691.924 8395820.908 10 0 61024 7200.00000 0 23476685.819 8383647.120 5313466.320 10 0 61024 8100.00000 0 23964679.823 8409773.887 2127654.570 10 0 61024 9000.00000 0 24080831.711 8268363.271 -1099594.595 10 0 61024 9900.00000 0 23804688.702 8011751.322 -4305420.131 10 0 61024 10800.00000 0 23128909.913 7695864.574 -7427356.124 10 0 61024 11700.00000 0 22059682.609 7377618.974 -10404562.119 10 0 61024 12600.00000 0 20616584.350 7112284.106 -13179021.848 10 0 61024 13500.00000 0 18831896.142 6950926.141 -15696685.580 10 0 61024 14400.00000 0 16749395.202 6938039.465 -17908532.615 10 0 61024 15300.00000 0 14422678.263 7109468.743 -19771532.258 10 0 61024 16200.00000 0 11913086.233 7490710.462 -21249484.055 10 0 61024 17100.00000 0 9287317.770 8095666.477 -22313720.829 10 0 61024 18000.00000 0 6614832.288 8925902.589 -22943661.077 10 0 61024 18900.00000 0 3965151.348 9970443.439 -23127200.623 10 0 61024 19800.00000 0 1405171.190 11206112.106 -22860936.757 10 0 61024 20700.00000 0 -1003401.794 12598399.680 -22150221.510 10 0 61024 21600.00000 0 -3206386.534 14102827.743 -21009044.055 10 0 61024 22500.00000 0 -5159137.689 15666746.029 -19459745.529 10 0 61024 23400.00000 0 -6828148.860 17231489.401 -17532572.707 10 0 61024 24300.00000 0 -8192183.900 18734803.377 -15265079.917 10 0 61024 25200.00000 0 -9242891.423 20113436.442 -12701391.387 10 0 61024 26100.00000 0 -9984879.290 21305790.519 -9891338.749 10 0 61024 27000.00000 0 -10435248.386 22254518.817 -6889490.711 10 0 61024 27900.00000 0 -10622607.471 22908962.573 -3754093.788 10 0 61024 28800.00000 0 -10585612.379 23227325.097 -545944.687 10 0 61024 29700.00000 0 -10371092.500 23178492.588 2672783.962 10 0 61024 30600.00000 0 -10031844.395 22743425.995 5839742.050 10 0 61024 31500.00000 0 -9624186.078 21916066.064 8893601.749 10 0 61024 32400.00000 0 -9205375.119 20703713.973 11775235.946 10 0 61024 33300.00000 0 -8830999.157 19126871.606 14428853.210 10 0 61024 34200.00000 0 -8552448.313 17218547.864 16803068.152 10 0 61024 35100.00000 0 -8414575.397 15023059.276 18851887.330 10 0 61024 36000.00000 0 -8453641.903 12594373.895 20535592.600 10 0 61024 36900.00000 0 -8695635.899 9994066.135 21821505.592 10 0 61024 37800.00000 0 -9155032.560 7288966.062 22684619.263 10 0 61024 38700.00000 0 -9834049.875 4548599.080 23108084.719 10 0 61024 39600.00000 0 -10722431.706 1842520.700 23083544.008 10 0 61024 40500.00000 0 -11797768.662 -762344.612 22611302.150 10 0 61024 41400.00000 0 -13026345.082 -3204251.390 21700334.458 10 0 61024 42300.00000 0 -14364478.516 -5428963.139 20368127.950 10 0 61024 43200.00000 0 -15760297.498 -7391768.172 18640358.664 10 0 61024 44100.00000 0 -17155884.858 -9059097.756 16550409.623 10 0 61024 45000.00000 0 -18489697.982 -10409679.098 14138737.315 10 0 61024 45900.00000 0 -19699165.320 -11435174.828 11452097.594 10 0 61024 46800.00000 0 -20723350.276 -12140281.904 8542644.895 10 0 61024 47700.00000 0 -21505570.043 -12542285.536 5466921.552 10 0 61024 48600.00000 0 -21995858.178 -12670086.772 2284756.621 10 0 61024 49500.00000 0 -22153165.711 -12562744.934 -941904.173 10 0 61024 50400.00000 0 -21947206.257 -12267596.929 -4150213.818 10 0 61024 51300.00000 0 -21359865.455 -11838033.850 -7277659.981 10 0 61024 52200.00000 0 -20386113.523 -11331030.188 -10263296.121 10 0 61024 53100.00000 0 -19034380.915 -10804531.736 -13048942.240 10 0 61024 54000.00000 0 -17326380.129 -10314814.442 -15580330.443 10 0 61024 54900.00000 0 -15296380.428 -9913927.646 -17808171.774 10 0 61024 55800.00000 0 -12989965.691 -9647331.318 -19689122.553 10 0 61024 56700.00000 0 -10462327.620 -9551828.411 -21186630.891 10 0 61024 57600.00000 0 -7776166.166 -9653880.437 -22271646.774 10 0 61024 58500.00000 0 -4999285.489 -9968377.732 -22923182.132 10 0 61024 59400.00000 0 -2201986.295 -10497916.235 -23128710.617 10 0 61024 60300.00000 0 545636.468 -11232610.831 -22884400.156 10 0 61024 61200.00000 0 3176377.995 -12150452.492 -22195174.729 10 0 61024 62100.00000 0 5628478.791 -13218193.358 -21074605.206 10 0 61024 63000.00000 0 7847945.242 -14392721.765 -19544632.348 10 0 61024 63900.00000 0 9790540.300 -15622868.642 -17635128.241 10 0 61024 64800.00000 0 11423363.176 -16851568.771 -15383305.421 10 0 61024 65700.00000 0 12725954.307 -18018285.735 -12832985.734 10 0 61024 66600.00000 0 13690881.753 -19061598.488 -10033743.558 10 0 61024 67500.00000 0 14323786.902 -19921840.922 -7039940.277 10 0 61024 68400.00000 0 14642889.868 -20543683.833 -3909668.859 10 0 61024 69300.00000 0 14677977.355 -20878551.172 -703629.028 10 0 61024 70200.00000 0 14468917.232 -20886769.598 2516045.297 10 0 61024 71100.00000 0 14063763.509 -20539361.567 5686983.844 10 0 61024 72000.00000 0 13516532.281 -19819407.075 8747780.273 10 0 61024 72900.00000 0 12884742.579 -18722917.194 11639172.219 10 0 61024 73800.00000 0 12226825.580 -17259182.766 14305178.945 10 0 61024 74700.00000 0 11599510.857 -15450583.290 16694175.370 10 0 61024 75600.00000 0 11055299.019 -13331863.298 18759882.590 10 0 61024 76500.00000 0 10640126.380 -10948905.280 20462256.659 10 0 61024 77400.00000 0 10391319.224 -8357048.935 21768259.243 10 0 61024 78300.00000 0 10335923.250 -5619024.935 22652495.975 10 0 61024 79200.00000 0 10489478.282 -2802587.255 23097710.569 10 0 61024 80100.00000 0 10855290.064 22059.508 23095125.301 10 0 61024 81000.00000 0 11424230.515 2784932.869 22644620.973 10 0 61024 81900.00000 0 12175076.019 5418935.966 21754752.284 10 0 61024 82800.00000 0 13075371.090 7862402.522 20442597.275 10 0 61024 83700.00000 0 14082782.819 10061418.453 18733442.507 10 0 61024 84600.00000 0 15146890.862 11971824.113 16660308.574 10 0 61024 85500.00000 0 16211339.185 13560813.823 14263323.700 99